• Join FlightAware (Why Join?)
  • Login
  • US Flag 
12:16PM EST


 

Airport Tracker/Info


-or-


 

Live Flight TrackerFlight Track Log ✈ TRS244 ✈ 04-Mar-2014 ✈ KIND - KMCO

Flight Track Log - Related Links

Times and Time Zones

All times are in EST time to prevent confusion due to time zone crossing. See the TRS244 flight status page for this flight to view local times or setup timezone preferences in your user account.

Time Position Orientation Groundspeed Altitude Reporting Facility
EST Latitude Longitude Course Direction KTS MPH feet Rate Location/Type
08:11AM 39.7000 -86.3167 270° West 162 186 1,700  Level Indianapolis TRACON
08:11AM 39.7000 -86.3333 270° West 164 189 2,200 1,643 Climbing Indianapolis TRACON
08:13AM 39.6464 -86.3489 193° South 223 257 4,000 1,478 Climbing Indianapolis Center
08:14AM 39.5808 -86.3442 177° South 232 267 5,500 1,887 Climbing Indianapolis Center
08:15AM 39.4958 -86.3306 173° South 253 291 7,900 2,439 Climbing Indianapolis Center
08:16AM 39.4189 -86.3164 172° South 272 313 10,500 2,000 Climbing Indianapolis Center
08:17AM 39.3381 -86.3033 173° South 287 330 12,000 1,548 Climbing Indianapolis Center
08:18AM 39.2469 -86.2872 172° South 319 367 13,700 1,512 Climbing Indianapolis Center
08:19AM 39.1464 -86.2697 172° South 354 407 15,100 1,756 Climbing Indianapolis Center
08:20AM 39.0417 -86.2528 173° South 375 432 17,300 1,645 Climbing Indianapolis Center
08:21AM 38.9339 -86.2517 180° South 385 443 18,500 1,463 Climbing Indianapolis Center
08:22AM 38.8069 -86.2589 183° South 400 460 20,300 1,902 Climbing Indianapolis Center
08:23AM 38.6858 -86.2453 175° South 424 488 22,400 1,355 Climbing Indianapolis Center
08:24AM 38.5708 -86.1961 162° South 428 493 23,100 976 Climbing Indianapolis Center
08:25AM 38.4700 -86.0908 141° Southeast 460 529 24,400 1,220 Climbing Indianapolis Center
08:26AM 38.3789 -85.9631 132° Southeast 478 550 25,600 1,065 Climbing Indianapolis Center
08:27AM 38.2639 -85.8808 151° Southeast 477 549 26,600 1,268 Climbing Indianapolis Center
08:28AM 38.1136 -85.8303 165° South 465 535 28,200 1,415 Climbing Indianapolis Center
08:29AM 37.9908 -85.7897 165° South 459 528 29,500 1,306 Climbing Indianapolis Center
08:30AM 37.8669 -85.7489 165° South 459 528 30,900 1,258 Climbing Indianapolis Center
08:31AM 37.7447 -85.7092 166° South 455 524 32,100 1,024 Climbing Indianapolis Center
08:32AM 37.6211 -85.6700 166° South 455 524 33,000 439 Climbing Indianapolis Center
08:33AM 37.5003 -85.6294 165° South 452 520 33,000  Level Indianapolis Center
08:34AM 37.3778 -85.5894 165° South 450 518 33,000  Level Indianapolis Center
08:35AM 37.2472 -85.5478 166° South 446 513 33,000  Level Indianapolis Center
08:36AM 37.1322 -85.5111 166° South 446 513 33,000  Level Indianapolis Center
08:37AM 37.0056 -85.4700 165° South 448 516 33,000  Level Indianapolis Center
08:38AM 36.8853 -85.4306 165° South 448 516 33,000  Level Indianapolis Center
08:39AM 36.7636 -85.3922 166° South 449 517 33,000  Level Indianapolis Center
08:40AM 36.6186 -85.3464 166° South 449 517 33,000  Level Indianapolis Center
08:41AM 36.4978 -85.3089 166° South 449 517 33,000  Level Indianapolis Center
08:42AM 36.3781 -85.2692 165° South 449 517 33,000  Level Indianapolis Center
08:43AM 36.2572 -85.2328 166° South 448 516 33,000  Level Indianapolis Center
08:45AM 36.1133 -85.1903 167° South 448 516 33,000  Level Atlanta Center
08:46AM 35.9928 -85.1525 166° South 448 516 33,000  Level Atlanta Center
08:47AM 35.8775 -85.1131 165° South 449 517 33,000  Level Indianapolis Center
08:48AM 35.7564 -85.0761 166° South 448 516 33,000  Level Indianapolis Center
08:49AM 35.6364 -85.0389 166° South 448 516 33,000  Level Indianapolis Center
08:50AM 35.5178 -85.0017 166° South 447 514 33,000  Level Indianapolis Center
08:51AM 35.3914 -84.9661 167° South 448 516 33,000  Level Atlanta Center
08:52AM 35.2706 -84.9292 166° South 448 516 33,000  Level Atlanta Center
08:53AM 35.1500 -84.8922 166° South 448 516 33,000  Level Atlanta Center
08:54AM 35.0292 -84.8556 166° South 448 516 33,000  Level Atlanta Center
08:55AM 34.9106 -84.8189 166° South 448 516 33,000  Level Atlanta Center
08:56AM 34.7875 -84.7822 166° South 448 516 33,000  Level Atlanta Center
08:57AM 34.6583 -84.7408 165° South 443 510 33,000  Level Atlanta Center
08:58AM 34.5375 -84.7019 165° South 443 510 33,000  Level Atlanta Center
08:59AM 34.4167 -84.6683 167° South 448 516 33,000  Level Atlanta Center
09:00AM 34.2958 -84.6322 166° South 448 516 33,000  Level Atlanta Center
09:01AM 34.1750 -84.5961 166° South 448 516 33,000  Level Atlanta Center
09:02AM 34.0603 -84.5653 167° South 454 522 33,000  Level Atlanta Center
09:03AM 33.9394 -84.5294 166° South 454 522 33,000  Level Atlanta Center
09:04AM 33.8164 -84.4939 167° South 459 528 33,000  Level Atlanta Center
09:05AM 33.6914 -84.4583 167° South 454 522 33,000  Level Atlanta Center
09:06AM 33.5578 -84.4078 162° South 455 524 33,000  Level Atlanta Center
09:07AM 33.4347 -84.3575 161° South 464 534 33,000  Level Atlanta Center
09:08AM 33.3139 -84.3097 162° South 464 534 33,000  Level Atlanta Center
09:09AM 33.2056 -84.2622 160° South 464 534 33,000  Level Atlanta Center
09:10AM 33.0844 -84.2150 162° South 464 534 33,000  Level Atlanta Center
09:11AM 32.9633 -84.1650 161° South 464 534 33,000  Level Atlanta Center
09:12AM 32.8444 -84.1106 159° South 464 534 33,000  Level Atlanta Center
09:13AM 32.7214 -84.0611 161° South 464 534 33,000  Level Atlanta Center
09:14AM 32.5983 -84.0092 160° South 464 534 33,000  Level Atlanta Center
09:15AM 32.4750 -83.9600 161° South 464 534 33,000  Level Atlanta Center
09:16AM 32.3497 -83.9086 161° South 464 534 33,000  Level Atlanta Center
09:17AM 32.2286 -83.8597 161° South 464 534 33,000  Level Atlanta Center
09:18AM 32.1075 -83.8108 161° South 464 534 33,000  Level Atlanta Center
09:19AM 31.9383 -83.7397 160° South 497 572 33,000  Level Jacksonville Center
09:20AM 31.8364 -83.6703 150° Southeast 482 555 33,000  Level Jacksonville Center
09:21AM 31.7178 -83.5886 150° Southeast 476 548 33,000  Level Jacksonville Center
09:22AM 31.5992 -83.5144 152° Southeast 476 548 33,000  Level Jacksonville Center
09:23AM 31.4847 -83.4383 150° Southeast 476 548 33,000  Level Jacksonville Center
09:24AM 31.3703 -83.3622 150° Southeast 481 554 33,000  Level Jacksonville Center
09:25AM 31.2556 -83.2886 151° Southeast 481 554 33,000  Level Jacksonville Center
09:26AM 31.1367 -83.2081 150° Southeast 481 554 33,000 -300 Level Jacksonville Center
09:27AM 31.0222 -83.1350 151° Southeast 481 554 32,400 -1,700 Descending Jacksonville Center
09:28AM 30.9053 -83.0572 150° Southeast 481 554 29,600 -2,500 Descending Jacksonville Center
09:29AM 30.7925 -82.9844 151° Southeast 481 554 27,400 -1,300 Descending Jacksonville Center
09:30AM 30.6800 -82.9142 152° Southeast 476 548 27,000 -250 Descending Jacksonville Center
09:31AM 30.5692 -82.8394 150° Southeast 470 541 26,900 -250 Descending Jacksonville Center
09:32AM 30.4586 -82.7697 151° Southeast 460 529 26,500 -900 Descending Jacksonville Center
09:33AM 30.3478 -82.6953 150° Southeast 460 529 25,100 -750 Descending Jacksonville Center
09:34AM 30.2411 -82.6256 151° Southeast 450 518 25,000 -50 Descending Jacksonville Center
09:35AM 30.1344 -82.5586 152° Southeast 444 511 25,000  Level Jacksonville Center
09:36AM 30.0278 -82.4919 152° Southeast 439 505 25,000  Level Jacksonville Center
09:37AM 29.9067 -82.4278 155° Southeast 439 505 25,000  Level Jacksonville Center
09:38AM 29.7958 -82.3733 157° South 439 505 25,000 -550 Level Jacksonville Center
09:39AM 29.6847 -82.3189 157° South 434 499 23,900 -1,300 Descending Jacksonville Center
09:40AM 29.5739 -82.2644 157° South 434 499 22,400 -1,450 Descending Jacksonville Center
09:41AM 29.4672 -82.2128 157° South 428 493 21,000 -1,500 Descending Jacksonville Center
09:42AM 29.3667 -82.1633 157° South 415 478 19,400 -1,550 Descending Jacksonville Center
09:43AM 29.2664 -82.1214 160° South 405 466 17,900 -1,350 Descending Jacksonville Center
09:44AM 29.1700 -82.0744 157° South 387 445 16,700 -1,350 Descending Jacksonville Center
09:45AM 29.0736 -82.0300 158° South 382 440 15,200 -1,900 Descending Jacksonville Center
09:46AM 28.9794 -81.9811 156° South 371 427 12,900 -2,000 Descending Jacksonville Center
09:47AM 28.8914 -81.9344 155° Southeast 376 433 11,200 -1,389 Descending Jacksonville Center
09:48AM 28.8333 -81.8500 128° Southeast 326 375 10,400 -1,176 Descending Orlando TRACON
09:49AM 28.8000 -81.7833 120° Southeast 315 362 9,200 -737 Descending Orlando TRACON
09:50AM 28.7500 -81.7000 124° Southeast 298 343 9,000 -87 Descending Orlando TRACON
09:51AM 28.7000 -81.6000 120° Southeast 303 349 9,000  Level Orlando TRACON
09:52AM 28.6500 -81.5167 124° Southeast 307 353 9,000  Level Orlando TRACON
09:53AM 28.6167 -81.4500 120° Southeast 252 290 9,000 -105 Level Orlando TRACON
09:54AM 28.5500 -81.4333 168° South 227 261 8,800 -789 Descending Orlando TRACON
09:55AM 28.5000 -81.4167 164° South 231 266 7,500 -1,368 Descending Orlando TRACON
09:56AM 28.4333 -81.4167 180° South 222 255 6,200 -1,316 Descending Orlando TRACON
09:57AM 28.3833 -81.4167 180° South 222 255 5,000 -835 Descending Orlando TRACON
09:58AM 28.3167 -81.4167 180° South 200 230 4,600 -545 Descending Orlando TRACON
09:59AM 28.2667 -81.4167 180° South 207 238 3,900 -850 Descending Orlando TRACON
10:00AM 28.2167 -81.4000 164° South 199 229 2,900 -1,100 Descending Orlando TRACON
10:01AM 28.2000 -81.3333 106° East 175 201 1,700 -591 Descending Orlando TRACON
10:02AM 28.2500 -81.3167 16° North 180 207 1,600 -43 Descending Orlando TRACON
10:03AM 28.3000 -81.3167 360° North 167 192 1,600 -53 Level Orlando TRACON
10:04AM 28.3500 -81.3167 360° North 166 191 1,500 -556 Descending Orlando TRACON
10:05AM 28.3833 -81.3167 360° North 144 166 600 -900 Descending Orlando TRACON
10:07AM 28.4167 -81.3000 24° Northeast  Level FlightAware Approximate